Columbia, MO

2:11 AM CDT on March 23, 2017 (GMT -0500)
Columbia Regional

Weather History for KCOU - March, 2014

Change the Weather History Date:

Monday, March 17, 2014

  Actual Average Record
Temperature  
Mean Temperature 32 °F 45 °F  
Max Temperature 48 °F 56 °F 83 °F (1894)
Min Temperature 16 °F 34 °F 8 °F (1906)
Degree Days  
Heating Degree Days 33 20  
Month to date heating degree days 452 390  
Since 1 July heating degree days 4881 4336  
Cooling Degree Days 0 0  
Month to date cooling degree days 0 0  
Year to date cooling degree days 0 0  
Moisture  
Dew Point 16 °F    
Average Humidity 57    
Maximum Humidity 88    
Minimum Humidity 25    
Precipitation  
Precipitation 0.00 in 0.10 in 1.19 in (2008)
Month to date precipitation 0.55 1.48  
Year to date precipitation 2.81 5.65  
Snow  
Snow 0.00 in 0.10 in 2.40 in (1924)
Month to date snowfall 0.5 1.3  
Since 1 July snowfall 17.8 17.4  
Snow Depth 0.00 in    
Sea Level Pressure  
Sea Level Pressure 29.90 in    
Wind  
Wind Speed 7 mph (SE)    
Max Wind Speed 15 mph    
Max Gust Speed 20 mph    
Visibility 10 miles    
Events      
T = Trace of Precipitation, MM = Missing Value Source: NWS Daily Summary

Daily Weather History Graph

Daily Weather History Graph

Search for Another Location

Airport or City:

Trip Planner

Search our weather history database for the weather conditions in past years. The results will help you decide how hot, cold, wet, or windy it might be!

Date:

Astronomy

Mar. 17, 2014 Rise Set
Actual Time 7:17 AM CDT 7:17 PM CDT
Civil Twilight 6:50 AM CDT 7:44 PM CDT
Nautical Twilight 6:19 AM CDT 8:15 PM CDT
Astronomical Twilight 5:48 AM CDT 8:46 PM CDT
Moon 8:34 PM CDT (3/17) 7:33 AM CDT (3/17)
Length of Visible Light 12h 54m
Length of Day
12h 00m
Full, 99% of the Moon is Illuminated
Mar 17
Full
Mar 23
Last Quarter
Mar 30
New
Apr 7
First Quarter
Apr 15
Full

Hourly Weather History & Observations

Time (CDT) Temp. Windchill Dew Point Humidity Pressure Visibility Wind Dir Wind Speed Gust Speed Precip Events Conditions
12:54 AM 19.9 °F 11.1 °F 14.0 °F 78% 30.10 in 10.0 mi NNE 6.9 mph - N/A   Clear
1:54 AM 19.0 °F 11.1 °F 14.0 °F 81% 30.09 in 10.0 mi North 5.8 mph - N/A   Clear
2:54 AM 18.0 °F 9.8 °F 12.9 °F 81% 30.06 in 10.0 mi North 5.8 mph - N/A   Clear
3:54 AM 17.1 °F 11.7 °F 12.9 °F 84% 30.03 in 10.0 mi North 3.5 mph - N/A   Clear
4:54 AM 17.1 °F 11.7 °F 12.9 °F 84% 30.01 in 10.0 mi North 3.5 mph - N/A   Clear
5:54 AM 16.0 °F 10.4 °F 12.0 °F 84% 30.00 in 10.0 mi North 3.5 mph - N/A   Clear
6:54 AM 16.0 °F 7.4 °F 12.0 °F 84% 30.01 in 10.0 mi NW 5.8 mph - N/A   Clear
7:54 AM 16.0 °F - 12.9 °F 88% 29.99 in 10.0 mi Calm Calm - N/A   Clear
8:54 AM 23.0 °F 14.7 °F 16.0 °F 74% 29.99 in 10.0 mi East 6.9 mph - N/A   Clear
9:54 AM 26.1 °F 21.9 °F 17.1 °F 69% 29.98 in 10.0 mi SSE 3.5 mph - N/A   Clear
10:54 AM 30.9 °F 25.2 °F 16.0 °F 54% 29.94 in 10.0 mi South 5.8 mph - N/A   Clear
11:54 AM 35.1 °F - 15.1 °F 44% 29.93 in 10.0 mi Calm Calm - N/A   Clear
12:54 PM 39.0 °F - 14.0 °F 36% 29.90 in 10.0 mi Calm Calm - N/A   Clear
1:54 PM 43.0 °F 38.2 °F 15.1 °F 32% 29.86 in 10.0 mi SSW 8.1 mph - N/A   Clear
2:54 PM 46.9 °F - 12.0 °F 24% 29.81 in 10.0 mi Variable 6.9 mph - N/A   Clear
3:54 PM 48.0 °F - 16.0 °F 28% 29.78 in 10.0 mi SSE 10.4 mph - N/A   Clear
4:54 PM 46.9 °F - 14.0 °F 27% 29.76 in 10.0 mi South 10.4 mph - N/A   Clear
5:54 PM 46.0 °F 40.2 °F 19.0 °F 34% 29.75 in 10.0 mi SSE 12.7 mph - N/A   Clear
6:54 PM 43.0 °F 37.2 °F 19.9 °F 40% 29.75 in 10.0 mi SSE 10.4 mph - N/A   Clear
7:54 PM 41.0 °F 35.2 °F 19.9 °F 43% 29.74 in 10.0 mi SE 9.2 mph - N/A   Clear
8:54 PM 39.0 °F 33.4 °F 19.9 °F 46% 29.75 in 10.0 mi SSE 8.1 mph - N/A   Clear
9:54 PM 37.0 °F 29.8 °F 19.9 °F 50% 29.75 in 10.0 mi SSE 10.4 mph - N/A   Clear
10:54 PM 37.0 °F 31.0 °F 19.9 °F 50% 29.74 in 10.0 mi SE 8.1 mph - N/A   Clear
11:54 PM 37.0 °F 31.0 °F 19.9 °F 50% 29.74 in 10.0 mi SE 8.1 mph - N/A   Clear